Location: Voyageurs National Park
(48.5020°N, 92.9292°W)
Time: 18:14:55
(UTC-05:00)

Meteor 2-8 Rocket - Pass Details

Date: 19 January 2018
Orbit: 938 x 957 km, 82.5° (Epoch: 26 May)

Event Time Altitude Azimuth Distance (km) Brightness Sun altitude
Rises 05:48:32 0° 348° (NNW) 3,649 7.3 -20.6°
Reaches altitude 10° 05:51:02 10° 347° (NNW) 2,698 6.6 -20.2°
Maximum altitude 05:57:12 75° 264° (W) 990 4.3 -19.1°
Drops below altitude 10° 06:03:17 10° 180° (S) 2,669 6.9 -18.2°
Sets 06:05:46 0° 179° (S) 3,607 7.6 -17.8°
